TimeEST,TemperatureF,Dew PointF,Humidity,Sea Level PressureIn,VisibilityMPH,Wind Direction,Wind SpeedMPH,Gust SpeedMPH,PrecipitationIn,Events,Conditions,WindDirDegrees,DateUTC
1:53 AM,45.0,30.9,58,29.77,10.0,WSW,12.7,20.7,N/A,,Clear,250,2013-02-28 06:53:00
2:53 AM,44.1,26.1,49,29.75,10.0,WSW,12.7,20.7,N/A,,Clear,250,2013-02-28 07:53:00
3:53 AM,42.1,27.0,55,29.75,10.0,WSW,10.4,18.4,N/A,,Clear,250,2013-02-28 08:53:00
4:53 AM,41.0,26.1,55,29.76,10.0,West,11.5,-,N/A,,Clear,260,2013-02-28 09:53:00
5:53 AM,39.9,26.1,58,29.77,10.0,WSW,11.5,-,N/A,,Clear,250,2013-02-28 10:53:00
6:53 AM,37.9,23.0,55,29.78,10.0,West,5.8,-,N/A,,Clear,280,2013-02-28 11:53:00
7:53 AM,39.0,23.0,53,29.80,10.0,West,13.8,-,N/A,,Clear,260,2013-02-28 12:53:00
8:53 AM,42.1,23.0,47,29.83,10.0,West,5.8,-,N/A,,Overcast,270,2013-02-28 13:53:00
9:53 AM,44.1,23.0,43,29.83,10.0,West,9.2,-,N/A,,Overcast,260,2013-02-28 14:53:00
10:53 AM,46.0,24.1,42,29.82,10.0,West,12.7,17.3,N/A,,Overcast,270,2013-02-28 15:53:00
11:53 AM,48.9,24.1,38,29.83,10.0,WSW,12.7,-,N/A,,Partly Cloudy,250,2013-02-28 16:53:00
12:53 PM,48.9,23.0,36,29.82,10.0,West,10.4,-,N/A,,Overcast,280,2013-02-28 17:53:00
1:53 PM,50.0,21.9,33,29.81,10.0,West,9.2,20.7,N/A,,Mostly Cloudy,260,2013-02-28 18:53:00
2:53 PM,50.0,23.0,35,29.81,10.0,West,12.7,21.9,N/A,,Mostly Cloudy,260,2013-02-28 19:53:00
4:53 PM,46.9,21.9,37,29.84,10.0,West,15.0,25.3,N/A,,Scattered Clouds,260,2013-02-28 21:53:00
5:53 PM,45.0,21.9,40,29.86,10.0,WSW,13.8,21.9,N/A,,Partly Cloudy,250,2013-02-28 22:53:00
6:53 PM,42.1,21.9,45,29.89,10.0,West,12.7,19.6,N/A,,Clear,260,2013-02-28 23:53:00
7:53 PM,39.9,23.0,51,29.91,10.0,NW,4.6,-,N/A,,Clear,320,2013-03-01 00:53:00
8:53 PM,37.9,23.0,55,29.91,10.0,North,5.8,-,N/A,,Clear,350,2013-03-01 01:53:00
9:53 PM,37.9,21.9,53,29.92,10.0,NW,3.5,-,N/A,,Clear,310,2013-03-01 02:53:00
10:53 PM,36.0,23.0,59,29.91,10.0,West,4.6,-,N/A,,Clear,270,2013-03-01 03:53:00
11:53 PM,36.0,23.0,59,29.91,10.0,WNW,5.8,-,N/A,,Clear,290,2013-03-01 04:53:00